Regional Weather Roundup
Issued by NWS

Home | Current Version | Previous Version | Graphics & Text | Print | Product List | Glossary On
Versions: 1 2 3 4 5 6 7 8 9 10 11 12 13 14 15 16 17 18 19 20 21 22 23 24 25 26 27 28 29 30 31 32 33 34 35 36 37 38 39 40 41 42 43 44 45 46 47 48 49 50
000
ASUS43 KLOT 201603
RWRIL

ILLINOIS REGIONAL WEATHER ROUNDUP
NATIONAL WEATHER SERVICE CHICAGO/ROMEOVILLE IL
1000 AM CST MON NOV 20 2017

NOTE: "FAIR" INDICATES FEW OR NO CLOUDS BELOW 12,000 FEET WITH NO
SIGNIFICANT WEATHER AND/OR OBSTRUCTIONS TO VISIBILITY.

* THESE STATIONS ARE NOT UNDER NWS QUALITY CONTROL. THEY ALSO MAY NOT
  REPORT WEATHER SUCH AS PRECIPITATION OR FOG.

ILZ001-002-007-009-015-016-024-201700-
NORTHWEST ILLINOIS

CITY           SKY/WX    TMP DP  RH WIND       PRES   REMARKS
MOLINE         SUNNY     46  29  51 SW15G23   29.85F
STERLING*      SUNNY     44  31  60 VRB7      29.87F
SAVANNA*       SUNNY     44  31  60 S12       29.84F
$$

ILZ003-004-008-010-011-017-018-201700-
NORTH CENTRAL ILLINOIS

CITY           SKY/WX    TMP DP  RH WIND       PRES   REMARKS
ROCKFORD       PTSUNNY   42  29  59 SW17      29.87F
FREEPORT*      SUNNY     41  30  66 SW20      29.85F
ROCHELLE*      SUNNY     42  31  66 S18       29.87F
DE KALB*       SUNNY     40  31  69 SW21      29.88F
PERU*          SUNNY     44  28  53 SW22G29   29.91F
$$

ILZ005-006-012>014-019>023-201700-
NORTHEAST ILLINOIS

CITY           SKY/WX    TMP DP  RH WIND       PRES   REMARKS
CHICAGO-OHARE  MOSUNNY   43  27  53 SW18G24   29.89F
CHICAGO-MIDWAY MOSUNNY   44  29  55 SW16G22   29.91F
AURORA         SUNNY     42  30  62 S18G26    29.90F
LANSING*       SUNNY     41  31  67 SW24G31   29.94F
JOLIET*        SUNNY     45  30  57 SW10G20   29.94S
WAUKEGAN       SUNNY     43  29  57 SW21G30   29.85F
DUPAGE AIRPORT SUNNY     42  29  59 SW17G28   29.89F
KANKAKEE*      SUNNY     41  28  60 SW16G26   29.98F
WHEELING       SUNNY     43  28  55 SW13      29.89F
MORRIS*        SUNNY     43  30  60 SW24G30   29.92F
ROMEOVILLE*    SUNNY     43  30  59 SW18G26   29.93S
NORTHERLY ISL    N/A     42  26  53 S15         N/A
$$

LMZ740>746-201700-
SOUTHERN LAKE MICHIGAN

STATION/POSITION SKY/WX   TEMP    WIND        PRES    VSBY  WAVE
                          AIR SEA DIR/SP/G                  HT/PER
                          (F)     (DEG/KT/KT) (MB)    (MI)  (FT/S)
SOUTHERN BUOY              43 49  240/ 21/ 27 1012.2          7/ 6
HARRISON CRIB              42     210/ 26/ 30   N/A
BURNHAM HARBOR             43     190/ 11/ 15   N/A
CALUMET HARBOR             41     200/ 13/ 20 1012.7F
BURNS HARBOR               42     190/ 15/ 22 1014.6F
MICHIGAN CITY              40     180/ 19/ 25   N/A
$$

ILZ025>027-034>036-040-047-049-050-058-095>099-201700-
WEST-CENTRAL ILLINOIS

CITY           SKY/WX    TMP DP  RH WIND       PRES   REMARKS
QUINCY         SUNNY     48  30  49 SW20G28   29.95F
GALESBURG*     SUNNY     47  33  56 S23G29    29.90F
MACOMB*        SUNNY     48  31  50 SW23G30   29.94F
JACKSONVILLE*  SUNNY     46  29  50 S18G26    30.01F
PITTSFIELD*    SUNNY     48  30  50 S17G25    30.00F
$$

ILZ028>032-037-038-041>044-048-051>054-059>061-201700-
CENTRAL ILLINOIS

CITY           SKY/WX    TMP DP  RH WIND       PRES   REMARKS
PONTIAC        SUNNY     43  31  62 S20G25    29.97F
BLOOMINGTON    CLOUDY    42  28  57 SW22G29   29.98F
DECATUR        SUNNY     43  28  55 S22       30.06F
PEORIA         CLOUDY    42  30  62 S13       29.96F
LACON*         CLOUDY    44  28  54 SW17G23   29.93F
LINCOLN*       SUNNY     43  31  61 S15       30.01F
SPRINGFIELD    SUNNY     46  29  51 S20G26    30.03F
TAYLORVILLE    SUNNY     42  29  59 S16G23    30.07F
$$

ILZ033-039-045-046-055>057-062-063-201700-
EAST-CENTRAL ILLINOIS

CITY           SKY/WX    TMP DP  RH WIND       PRES   REMARKS
CHAMPAIGN      SUNNY     41  30  65 S21G29    30.05F
DANVILLE*      SUNNY     40  27  59 S20G25    30.04F
RANTOUL*       SUNNY     43  31  62 S18G24    30.03F
MATTOON        SUNNY     40  28  62 S14G21    30.09F
PARIS*         SUNNY     40  29  63 S18       30.12F
$$

ILZ079-100>102-201700-
SOUTHWEST ILLINOIS

CITY           SKY/WX    TMP DP  RH WIND       PRES   REMARKS
ALTON          MOSUNNY   46  28  49 S14G21    30.09F
BELLEVILLE     SUNNY     46  25  43 SW12      30.10F
CAHOKIA*       SUNNY     48  24  39 SW8       30.10F
SPARTA*        CLOUDY    43  25  48 S14G22    30.15S
$$

ILZ064>066-069>071-074>076-080>082-084>086-088>090-092>094-201700-
SOUTH-CENTRAL ILLINOIS

CITY           SKY/WX    TMP DP  RH WIND       PRES   REMARKS
CARBONDALE     CLOUDY    44  28  53 S13G23    30.19F
CAIRO*         CLOUDY    41  29  63 S9        30.24F
EFFINGHAM*     SUNNY     43  28  55 SE10G17   30.14F
MARION         MOSUNNY   43  28  56 S12       30.21R
MT. VERNON     SUNNY     44  29  55 SW20      30.15F
CENTRALIA*     SUNNY     46  30  53 S15       30.13R
SALEM*         SUNNY     47  27  46 S13       30.13S
METROPOLIS*    CLOUDY    43  28  56 SW8       30.25S
$$

ILZ067-068-072-073-078-083-087-091-201700-
SOUTHEAST ILLINOIS

CITY           SKY/WX    TMP DP  RH WIND       PRES   REMARKS
LAWRENCEVILLE  SUNNY     41  30  65 S13       30.19F
FLORA*         SUNNY     44  30  59 S10       30.19S
FAIRFIELD*     SUNNY     42  29  59 S6        30.16F
HARRISBURG*    SUNNY     43  28  54 SW17G23   30.21S
ROBINSON*      SUNNY     41  28  58 S12G17    30.17F
CARMI*         SUNNY     42  29  61 S15       30.19F
$$

ABBREVIATIONS USED IN REMARKS
   TC - TEMPERATURE IN CELSIUS
  WCI - WIND CHILL INDEX
   HX - HEAT INDEX
  VSB - VISIBILITY
$$





USA.gov is the U.S. government's official web portal to all federal, state and local government web resources and services.